Погода в Тузуклее

Россия / Астраханская область     46°08′42″N   48°19′44″E
темп.,
°C
ветер,
м/с
пор.,
м/с
влажн.,
%
обл.,
%
осадки,
мм/ч
давл.,
гПа
погр.,
м
12 мая, ср
ср1201:00+12всв33630 0.0 101836
04:00+11св34680 0.0 101753
07:00+14всв24680 0.0 1017133
10:00+20в234645 0.0 10171053
13:00+24вюв454014 0.0 10171910
16:00+24вюв65410 0.0 10171689
19:00+21юв44500 0.0 1016772
22:00+16ююв22660 0.0 101632
13 мая, чт
чт1301:00+15юв23700 0.0 101643
04:00+15ююз11740 0.0 101510
07:00+17в226611 0.0 1015126
10:00+24юв47503 0.0 1016941
13:00+27ююв710370 0.0 10161203
16:00+27ююв79380 0.0 1016922
19:00+24юв47420 0.0 1017455
22:00+19вюв38560 0.0 1017125
14 мая, пт
пт1401:00+19вюв33490 0.0 101740
04:00+19в47570 0.0 101791
07:00+21вюв514450 0.0 1018378
10:00+28ююв811231 0.0 1018787
13:00+30юв810170 0.0 10191050
16:00+30юв912140 0.0 10181225
19:00+26вюв510250 0.0 1018400
22:00+20в4144816 0.0 1018261
15 мая, сб
сб1501:00+19вюв4115662 0.0 1017179
04:00+19вюв614537 0.0 1017221
07:00+22юв514451 0.0 1017407
10:00+29юв811250 0.0 10171174
13:00+31юв78220 0.0 10171882
16:00+30вюв77220 0.0 10171732
19:00+26вюв57310 0.0 1016371
22:00+21в47420 0.0 101696
16 мая, вс
вс1601:00+20всв47480 0.0 101597
04:00+20в514570 0.0 1014259
07:00+22вюв512520 0.0 1014292
10:00+29юв810250 0.0 1014948
13:00+31вюв810220 0.0 10141620
16:00+30вюв88210 0.0 10131176
19:00+27вюв610250 0.0 1012540
22:00+21в413380 0.0 1012219